Location: Summit Observatory
(39.5293°N, 75.7290°W)
Time: 03:02:49
(UTC-05:00)

XW-2F - Pass Details

Date: 24 October 2019
Orbit: 502 x 524 km, 97.5° (Epoch: 12 November)

Event Time Altitude Azimuth Distance (km) Brightness Sun altitude
Rises 05:58:31 0° 37° (NE) 2,606 ? -16.8°
Reaches altitude 10° 06:02:14 10° 77° (ENE) 1,716 ? -16.0°
Maximum altitude 06:03:09 11° 91° (E) 1,669 ? -15.9°
Drops below altitude 10° 06:04:03 10° 106° (ESE) 1,714 ? -15.7°
Sets 06:07:45 0° 145° (SE) 2,595 ? -15.0°
